Location: Arapaho Elementary School
(32.9607°N, 96.7625°W)
Time: 02:42:48
(UTC+00:00)

H-2A R/B (2) - Visible Passes

Search period start: 28 June 2022 00:00
Search period end: 08 July 2022 00:00
Orbit: 439 x 34387 km, 28.9° (Epoch: 27 June)

Date Brightness Start Highest point End Pass type
(mag) Time Alt. Az. Time Alt. Az. Time Alt. Az.
28 Jun 8.5 07:19:17 10° SE 12:56:36 47° SE 13:47:51 10° E visible
30 Jun 6.5 07:54:25 11° S 16:26:23 70° SSE 16:42:21 10° E visible
01 Jul 9.3 07:24:38 10° SE 11:43:09 38° SE 12:42:46 10° E visible
02 Jul 4.8 11:28:33 10° SW 13:19:06 16° SW 19:32:23 10° ESE visible
03 Jul 7.1 06:57:45 11° SSE 15:17:10 66° SSE 15:40:24 10° E visible
04 Jul 9.5 07:31:12 10° ESE 10:34:09 29° ESE 11:34:51 10° E visible
05 Jul 5.3 09:58:10 10° SSW 12:50:29 24° SW 18:31:11 10° E visible
06 Jul 7.7 06:24:26 10° SSE 14:03:29 60° SSE 14:37:57 10° E visible
07 Jul 9.5 07:43:53 10° ESE 09:28:38 19° ESE 10:20:03 10° E visible
